Location: Gradaro
(45.0833°N, 10.8833°E)
Time: 13:41:45
(UTC+00:00)

Cosmos 1515 Rocket - Pass Details

Date: 29 November 2020
Orbit: 605 x 631 km, 82.5° (Epoch: 24 January)

Event Time Altitude Azimuth Distance (km) Brightness Sun altitude
Exits shadow 04:09:38 15° 4° (N) 1,685 5.7 -24.6°
Maximum altitude 04:13:08 52° 78° (ENE) 791 4.4 -24.0°
Drops below altitude 10° 04:17:29 10° 155° (SSE) 2,006 6.6 -23.3°
Sets 04:19:45 0° 160° (SSE) 2,908 7.4 -22.9°
